Weather History for Clearfield, PA

Change the Weather History Date:

Monday, July 29, 2013

  Actual Average (KDUJ) Record (KDUJ)
Temperature  
Mean Temperature 60 °F 68 °F  
Max Temperature 72 °F 79 °F 92 °F (1988)
Min Temperature 50 °F 58 °F 50 °F (1972)
Degree Days  
Heating Degree Days 5 1  
Month to date heating degree days 29  
Since 1 June heating degree days 114  
Since 1 July heating degree days 29  
Cooling Degree Days 0 4  
Month to date cooling degree days 116  
Year to date cooling degree days 210  
Since 1 June cooling degree days 187  
Growing Degree Days 10 (Base 50)    
Moisture  
Dew Point 50 °F    
Average Humidity 75    
Maximum Humidity 100    
Minimum Humidity 47    
Precipitation  
Precipitation 0.01 in 0.13 in 0.61 in (1963)
Month to date precipitation 3.99  
Sea Level Pressure  
Sea Level Pressure 30.11 in    
Wind  
Wind Speed 3 mph (WSW)    
Max Wind Speed 15 mph    
Max Gust Speed 22 mph    
Visibility 8 miles    
Events Fog    
T = Trace of Precipitation, MM = Missing Value Source: NWS Daily Summary

Daily Weather History Graph

Daily Weather History Graph

Search for Another Location

Airport:

Trip Planner

Search our weather history database for the weather conditions in past years. The results will help you decide how hot, cold, wet, or windy it might be!

Date:

Astronomy

Jul. 29, 2013 Rise Set
Actual Time 6:06 AM EDT 8:32 PM EDT
Civil Twilight 5:35 AM EDT 9:03 PM EDT
Nautical Twilight 4:56 AM EDT 9:42 PM EDT
Astronomical Twilight 4:13 AM EDT 10:25 PM EDT
Moon No Moon Rise 1:51 PM EDT (7/29)
Length of Visible Light 15h 28m
Length of Day
14h 25m
Waning Gibbous, 51% of the Moon is Illuminated
Jul 29
Waning Gibbous
Jul 29
Last Quarter
Aug 6
New
Aug 14
First Quarter
Aug 20
Full

Hourly Weather History & Observations

Time (EDT) Temp. Dew Point Humidity Pressure Visibility Wind Dir Wind Speed Gust Speed Precip Events Conditions
12:54 AM 59.0 °F 52.0 °F 78% 30.05 in 10.0 mi WNW 3.5 mph - N/A   Partly Cloudy
1:54 AM 53.1 °F 51.1 °F 93% 30.06 in 10.0 mi Calm Calm - N/A   Clear
2:54 AM 52.0 °F 50.0 °F 93% 30.06 in 10.0 mi Calm Calm - N/A   Clear
3:54 AM 52.0 °F 50.0 °F 93% 30.06 in 10.0 mi Calm Calm - N/A   Clear
4:54 AM 51.1 °F 48.9 °F 92% 30.07 in 10.0 mi Calm Calm - N/A   Partly Cloudy
5:38 AM 50.0 °F 48.2 °F 94% 30.09 in 7.0 mi Calm Calm - N/A   Mostly Cloudy
5:54 AM 52.0 °F 50.0 °F 93% 30.08 in 5.0 mi Calm Calm - N/A   Overcast
6:06 AM 51.8 °F 50.0 °F 94% 30.10 in 1.8 mi Calm Calm - N/A   Overcast
6:13 AM 50.0 °F 48.2 °F 94% 30.10 in 0.2 mi Calm Calm - N/A Fog Fog
6:54 AM 51.1 °F 51.1 °F 100% 30.10 in 0.2 mi Calm Calm - N/A Fog Fog
7:54 AM 53.1 °F 52.0 °F 96% 30.10 in 0.2 mi Variable 3.5 mph - 0.01 in Fog Fog
8:15 AM 53.6 °F 53.6 °F 100% 30.11 in 1.0 mi SSW 3.5 mph - N/A   Mist
8:24 AM 55.4 °F 53.6 °F 94% 30.11 in 3.0 mi Variable 3.5 mph - N/A   Overcast
8:54 AM 55.9 °F 54.0 °F 93% 30.10 in 10.0 mi South 4.6 mph - N/A   Scattered Clouds
9:54 AM 60.1 °F 54.0 °F 80% 30.10 in 10.0 mi SSW 8.1 mph - N/A   Clear
10:54 AM 66.9 °F 48.9 °F 52% 30.10 in 10.0 mi West 9.2 mph - N/A   Partly Cloudy
11:54 AM 66.9 °F 48.0 °F 51% 30.11 in 10.0 mi West 8.1 mph - N/A   Overcast
12:54 PM 66.9 °F 46.9 °F 49% 30.12 in 10.0 mi WSW 15.0 mph 21.9 mph N/A   Overcast
1:54 PM 68.0 °F 48.9 °F 50% 30.12 in 10.0 mi SW 11.5 mph 17.3 mph N/A   Overcast
2:54 PM 68.0 °F 48.9 °F 50% 30.13 in 10.0 mi WSW 10.4 mph - N/A   Overcast
3:54 PM 70.0 °F 48.9 °F 47% 30.13 in 10.0 mi WSW 9.2 mph - N/A   Scattered Clouds
4:54 PM 70.0 °F 48.9 °F 47% 30.12 in 10.0 mi West 5.8 mph - N/A   Scattered Clouds
5:54 PM 70.0 °F 51.1 °F 51% 30.13 in 10.0 mi West 5.8 mph - N/A   Overcast
6:54 PM 70.0 °F 50.0 °F 49% 30.14 in 10.0 mi West 9.2 mph - N/A   Partly Cloudy
7:54 PM 66.0 °F 50.0 °F 56% 30.15 in 10.0 mi WSW 4.6 mph - N/A   Clear
8:54 PM 63.0 °F 48.0 °F 58% 30.17 in 10.0 mi West 5.8 mph - N/A   Clear
9:54 PM 60.1 °F 48.0 °F 64% 30.20 in 10.0 mi WSW 3.5 mph - N/A   Clear
10:54 PM 57.9 °F 50.0 °F 75% 30.20 in 10.0 mi SW 3.5 mph - N/A   Clear
11:54 PM 55.9 °F 51.1 °F 84% 30.21 in 10.0 mi Calm Calm - N/A   Clear